OBJECT C, 66995

Orbit data source: Space-Track

You're viewing an Uncataloged Satellite

Recently launched and/or uncataloged satellites may have evolving metadata. Metadata may include but not limited to: Owner, Maufacturer, Bus, Motor, and Mission.

OBJECT C, 66995 is a Chinese satellite in SSO that was launched on Wed, 10 Dec 2025 UTC via a LIJIAN-1 launch vehicle from the Jiuquan Satellite Launch Center, China (JSC). Unknown objects in Earth's orbit typically refer to objects detected orbiting the Earth but have not yet been identified or cataloged. These objects could be anything from previously untracked satellites, spent rocket stages, debris from satellite collisions, or even natural meteoroids temporarily captured by Earth's gravity.

Loading next visibility...
Identifier
66995, 2025-292C
Orbit
SSO
Country
Flag of CNCN / PRC
Related business
None
Manufacturer
Unknown
Mission
Operational Commercial Imaging
Bus & Motor
Unknown
Mass
Unknown
Launch date (UTC)
2025-12-10 (6 months ago)
Launch vehicle
LIJIAN-1
Launch site
Jiuquan Satellite Launch Center, China (JSC)
Object type
Unknown
Shape & HBR
Box, 1.1 m
Radar Cross Section
2.000 m², Large (>1 m²)

Expand to show TLE details & history
Last TLE update: 9 hours ago

TLE from 9 hours ago
0 OBJECT C
1 66995U 25292C   26171.47994938  .00003624  00000-0  24821-3 0  9990
2 66995  97.6316 247.1997 0014164 352.4893   7.6120 15.06631464 28943
Epoch: 2026-06-20T11:31Z
TLE epoch observation values (Epoch: 2026-06-20T11:31:07.626Z)
Latitude
-0°
Longitude
165.72395°
Altitude
539.844 km
Speed
7.598 km/s
True Right ascension
16h 28m 47s
True Declination
0° 00' 00"
Sunlit
Object was in full shadow at epoch
Visualization orbit readout
Latitude
Unknown
Longitude
Unknown
Altitude
Unknown
Speed
Unknown
Apparent Right ascension
Unknown
Apparent Declination
Unknown
Sunlit
N/A
Visualization observer readout
Local Sidereal Time
07:18:17
Azimuth
Unknown
Elevation
Unknown
Doppler factor
Unknown
Orbital elements
Apogee altitude
553.299 km
Perigee altitude
533.692 km
Semi-major axis
6,921.633 km
Eccentricity
0.00142
Inclination
97.6316°
RAAN
247.1997°
Arg. of periapsis
352.4893°
True anomaly
7.63354°
Mean anomaly
7.612°
Eccentric anomaly
7.62277°
Mean motion
3.76904 °/min
Orbital period
95.52 mins
BSTAR
0.00024821
Loading maneuver chart data...
Computing Atmospheric mass density...
Loading historical data...
Loading historical data...
Loading historical data...
Loading historical data...
Loading historical data...
Loading historical data...
Loading historical data...

Documentation

Showing up to 5 results
|